Voltar ao catálogo

BLOCK DM-SL R/B

AtivoGEO
NORAD 44904·ROCKET BODY·🇷🇺 Russia

Lançado Dec 24, 2019 de Baikonur Cosmodrome

Loading…

TLE

AtualizadoSource: Space-Track

Época: Sep 13, 2026, 16:39 UTC

1 44904U 19095B   26256.69428067 -.00000038  00000-0  00000-0 0  9990
2 44904   5.5443  72.2981 0069600 278.2539  81.1938  1.02970428 25303

Acompanhe BLOCK DM-SL R/B em tempo real com AllMySat

Download on the App Store